Regional Weather Roundup
Issued by NWS

Home | Current Version | Previous Version | Graphics & Text | Print | Product List | Glossary On
Versions: 1 2 3 4 5 6 7 8 9 10 11 12 13 14 15 16 17 18 19 20 21 22 23 24 25 26 27 28 29 30 31 32 33 34 35 36 37 38 39 40 41 42 43 44 45 46 47 48 49 50
000
ASUS43 KMPX 212210
RWRMN
WEATHER ROUNDUP FOR MINNESOTA
NATIONAL WEATHER SERVICE TWIN CITIES/CHANHASSEN MN
400 PM CST TUE NOV 21 2017


NOTE: "FAIR" INDICATES FEW OR NO CLOUDS BELOW 12,000 FEET WITH NO
SIGNIFICANT WEATHER AND/OR OBSTRUCTIONS TO VISIBILITY. N/A MEANS
CURRENT SKY AND/OR WEATHER CONDITIONS ARE NOT AVAILABLE.

MNZ060>063-068>070-212300-
   Twin Cities Metro

CITY           SKY/WX    TMP DP  RH WIND       PRES   REMARKS
TWIN CITIES    CLEAR     28   9  44 NW22      30.20R WCI  14
ST PAUL        CLEAR     28   8  43 NW18      30.21R WCI  15
CRYSTAL        CLEAR     27   7  42 NW15G26   30.19R WCI  15
BLAINE         CLEAR     28   9  43 NW13      30.19R WCI  18
LAKEVILLE      CLEAR     27  10  50 NW15      30.19S WCI  15
EDEN PRAIRIE   CLEAR     28   9  44 NW13      30.19R WCI  17
SOUTH ST PAUL  CLEAR     29   9  42 N12       30.19S WCI  19
LAKE ELMO      FAIR      28  12  50 NW14      30.19S WCI  17
$$
MNZ001>005-007-008-013>017-022>024-027-028-212300-
   Northwest Minnesota

CITY           SKY/WX    TMP DP  RH WIND       PRES   REMARKS
BEMIDJI        LGT SNOW  16  10  76 NW16      30.23R WCI   0
HALLOCK        CLEAR     19  10  68 NW13      30.30R WCI   7
ROSEAU         CLEAR     19  12  73 W10G16    30.23R WCI   8
WARROAD        CLEAR     19  10  68 W9        30.21R WCI   9
THIEF RVR FALL FLURRIES  18  10  71 NW15      30.29R WCI   4
CROOKSTON      CLEAR     19  10  68 NW20      30.33R WCI   4
FOSSTON        FLURRIES  16   9  73 NW15      30.28R WCI   1
DETROIT LAKES  PTCLDY    19  12  73 NW15G23   30.28R WCI   5
MOORHEAD       CLEAR     21   9  58 NW18      30.34R WCI   6
PARK RAPIDS    CLOUDY    17   8  67 NW17G28   30.22R WCI   1
MAHNOMEN       CLOUDY    17   9  69 NW15      30.29R WCI   3
$$
MNZ006-009>011-018-025>026-212300-
   North Central Minnesota

CITY           SKY/WX    TMP DP  RH WIND       PRES   REMARKS
BAUDETTE       FLURRIES  18  11  74 W12G23    30.18R WCI   5
FLAG ISLAND    CLOUDY    19  10  68 W18       30.18R WCI   4
INTL FALLS     FLURRIES  18   9  68 W14       30.15R WCI   4
WASKISH        CLOUDY    18  10  73 W13G20    30.21R WCI   4
BIG FORK       CLOUDY    18   7  62 W6        30.17R WCI   9
LONGVILLE      CLOUDY    18   9  68 NW15G22   30.21R WCI   3
GRAND RAPIDS   FLURRIES  16   7  67 NW14G23   30.19R WCI   2
CRANE LAKE     CLOUDY    16   9  73 W3        30.14R
ORR            CLOUDY    16   7  67 W15       30.11R WCI   1
COOK           CLOUDY    16   9  73 W8        30.13S WCI   5
WALKER         CLOUDY    16   7  67 NW13      30.21R WCI   2
$$
MNZ012-019>021-037-212300-
   Northeast Minnesota

CITY           SKY/WX    TMP DP  RH WIND       PRES   REMARKS
DULUTH         FLURRIES  18   9  68 NW16G24   30.10R WCI   3
ELY            FLURRIES  16   7  67 W15G23    30.09R WCI   1
HIBBING        CLOUDY    15   6  67 NW16G26   30.14R WCI  -1
EVELETH        FLURRIES  16   6  64 NW14G23   30.14R WCI   1
DULUTH HARBOR  CLEAR     27  12  54 NW20G25   30.16R WCI  13
TWO HARBORS    PTCLDY    21  10  63 NW7G18    30.10R WCI  13
SILVER BAY     CLOUDY    18   9  68 W8G18     30.09R WCI   7
GRAND MARAIS     N/A     21   9  59 VRB6G20   30.09R WCI  13
G MARAIS ARPRT FLURRIES  12   3  67 W12G21    29.98R WCI  -2
$$
MNZ029>031-032-039>041-046>048-054>057-064-212300-
   West Central Minnesota

CITY           SKY/WX    TMP DP  RH WIND       PRES   REMARKS
FERGUS FALLS   CLEAR     21  10  63 NW18      30.34R WCI   6
WHEATON        CLEAR     23   7  50 W13       30.36R WCI  11
MORRIS         CLEAR     25  10  54 NW18G26   30.30R WCI  11
ALEXANDRIA     CLEAR     21  10  62 NW17G25   30.26R WCI   7
ELBOW LAKE     FAIR      21  10  63 W17       30.31R HAZE    WCI   7
WADENA         MOCLDY    18   9  68 NW15G25   30.25R WCI   3
GLENWOOD       CLEAR     21  10  63 NW21      30.26R WCI   6
APPLETON       CLEAR     25   7  46 NW13G22   30.32R WCI  13
BENSON         CLEAR     25   9  50 N16G24    30.31R WCI  12
ORTONVILLE     CLEAR     25   9  50 MISG      30.32R
MADISON        CLEAR     27  10  50 NW14      30.33R WCI  15
WILLMAR        FAIR      25  10  54 NW21      30.28R WCI  10
$$
MNZ033>034-036-042>043-049>051-058-059-212300-
   Central Minnesota

CITY           SKY/WX    TMP DP  RH WIND       PRES   REMARKS
ST CLOUD       CLEAR     25  10  53 NW17      30.22R WCI  12
SAUK CENTRE    FAIR      21  10  61 NW15      30.25S WCI   8
PAYNESVILLE    CLEAR     24  13  61 NW10G21   30.25R WCI  14
AITKIN         CLEAR     19   9  63 NW10G17   30.18R WCI   8
PINE RIVER     MOCLDY    18   7  62 NW10G20   30.24R WCI   6
BRAINERD       CLEAR     22   8  55 NW14      30.21R WCI   9
STAPLES        MOCLDY    19   9  63 NW13      30.23R WCI   7
LONG PRAIRIE   FAIR      21  10  63 W15G21    30.24R WCI   8
LITTLE FALLS   CLEAR     23   3  42 NW13G25   30.23R WCI  11
LITCHFIELD     CLEAR     27  12  54 NW12G18   30.25R WCI  16
BUFFALO        PTCLDY    26   9  47 W12       30.23R WCI  16
MAPLE LAKE     PTCLDY    26  13  56 NW14      30.23R WCI  15
HUTCHINSON     CLEAR     26  12  55 W17G24    30.26R WCI  14
$$
MNZ037-044-045-052-053-212300-
   East Central Minnesota

CITY           SKY/WX    TMP DP  RH WIND       PRES   REMARKS
PRINCETON      CLEAR     27   9  46 W15       30.19S WCI  15
MORA           CLEAR     27  10  50 NW12G17   30.19R WCI  16
CAMBRIDGE      CLEAR     28  12  50 W14       30.19R WCI  17
RUSH CITY      CLEAR     27   9  46 NW9G16    30.18R WCI  17
MOOSE LAKE     CLEAR     25  10  54 NW9       30.14R WCI  15
HINCKLEY       FAIR      28  10  47 NW7       30.17R WCI  21
CLOQUET        CLOUDY    21   9  58 W20G26    30.13R WCI   6
MCGREGOR       PTCLDY    23  12  63 W10G17    30.18R WCI  12
$$
MNZ071>073-080-081-089-090-097-098-212300-
   Southwest Minnesota

CITY           SKY/WX    TMP DP  RH WIND       PRES   REMARKS
MONTEVIDEO     CLEAR     27   9  46 N17G23    30.31R WCI  14
GRANITE FALLS  CLEAR     27  11  50 NW15G25   30.32R WCI  16
CANBY          CLEAR     28   9  46 W14G20    30.34R WCI  16
MARSHALL       CLEAR     25   9  50 N18G24    30.30R WCI  11
REDWOOD FALLS  CLEAR     26   7  44 NW14G25   30.28R WCI  14
OLIVIA         CLEAR     28  12  50 NW16G25   30.27R WCI  17
PIPESTONE      CLEAR     25   7  46 N17       30.28R WCI  11
WINDOM         CLEAR     27   9  46 NW21G26   30.25R WCI  13
WORTHINGTON    CLEAR     26   9  48 NW20G26   30.28R WCI  12
JACKSON        CLEAR     27   9  46 NW21G31   30.25R WCI  13
SLAYTON        CLEAR     26   8  47 NW15G21   30.28R WCI  13
$$
MNZ065>067-074>077-082>085-091>093-212300-
   South Central Minnesota

CITY           SKY/WX    TMP DP  RH WIND       PRES   REMARKS
MANKATO        CLEAR     26  11  52 NW20G25   30.23R WCI  12
NEW ULM        CLEAR     25   9  50 NW15G30   30.25R WCI  12
ST JAMES       CLEAR     27  10  50 NW23      30.27R WCI  12
FAIRMONT       CLEAR     26  11  52 NW25      30.25R WCI  11
GLENCOE        PTCLDY    28  12  53 NW18G24   30.23R WCI  15
FARIBAULT      CLEAR     27  12  54 NW9       30.20S WCI  17
OWATONNA       CLEAR     27  12  54 NW17      30.19R WCI  14
WASECA         CLEAR     28  12  50 NW16      30.22R WCI  17
ALBERT LEA     CLEAR     27  10  50 NW15      30.18S WCI  15
$$
MNZ078>079-086>088-094>096-212300-
   Southeast Minnesota

CITY           SKY/WX    TMP DP  RH WIND       PRES   REMARKS
ROCHESTER      PTCLDY    26  12  55 NW23G31   30.16R WCI  11
RED WING       CLEAR     28   7  40 NW8G20    30.18R WCI  20
STANTON        CLEAR     29  11  48 NW15      30.18S WCI  17
DODGE CENTER   PTCLDY    25  10  54 NW18G26   30.17R WCI  11
WINONA         CLEAR     30  14  51 NW13G26   30.17R WCI  20
AUSTIN         CLEAR     27  10  50 NW18G24   30.17R WCI  13
PRESTON        CLEAR     26  13  58 NW20      30.15R WCI  12
$$
ABBREVIATIONS USED IN REMARKS
   TC - TEMPERATURES IN CELSIUS
  WCI - WIND CHILL INDEX
   HX - HEAT INDEX
  VSB - VISIBILITY
$$




USA.gov is the U.S. government's official web portal to all federal, state and local government web resources and services.